Regional Weather Roundup
Issued by NWS Upton, NY

Current Version | Previous Version | Graphics & Text | Print | Product List | Glossary Off
Versions: 1 2 3 4 5 6 7 8 9 10 11 12 13 14 15 16 17 18 19 20 21 22 23 24 25 26 27 28 29 30 31 32 33 34 35 36 37 38 39 40 41 42 43 44 45 46 47 48 49 50

000
ASUS41 KOKX 110605
RWROKX

REGIONAL WEATHER ROUNDUP
NATIONAL WEATHER SERVICE NEW YORK NY
200 AM EDT FRI JUL 11 2014

NOTE: "FAIR" INDICATES FEW OR NO CLOUDS BELOW 12,000 FEET WITH NO
SIGNIFICANT WEATHER AND/OR OBSTRUCTIONS TO VISIBILITY.

NYZ071-072-176-178-NJZ106-104-110700-
NEW YORK CITY METRO AREA


CITY           SKY/WX    TMP DP  RH WIND       PRES   REMARKS
CENTRAL PARK   CLOUDY    74  61  63 W3        30.16S
LAGUARDIA APRT CLOUDY    74  60  61 SE3       30.13S
KENNEDY INTL   CLOUDY    71  63  75 CALM      30.14S
NEWARK/LIBERTY CLOUDY    73  62  68 CALM      30.13S
BRNX BOT. GARD   N/A     72  63  73 SE1       30.13S
TETERBORO      CLOUDY    74  65  73 NW3       30.12F
$$

NYZ177-179-078>081-110700-
LONG ISLAND NEW YORK

CITY           SKY/WX    TMP DP  RH WIND       PRES   REMARKS
FARMINGDALE    CLOUDY    71  64  78 N3        30.13F
ISLIP          CLOUDY    69  62  78 N3        30.12S
SHIRLEY        CLOUDY    66  63  90 CALM      30.14F
WESTHAMPTON    CLOUDY    64  61  90 N5        30.14F
MONTAUK POINT    N/A     68  63  84 CALM      30.15F
$$

NYZ052-065-067-110700-
HUDSON VALLEY

CITY           SKY/WX    TMP DP  RH WIND       PRES   REMARKS
WHITE PLAINS   CLOUDY    69  63  81 N3        30.15S
NEWBURGH       MOCLDY    68  57  68 CALM      30.18R
MONTGOMERY     MOCLDY    65  62  90 NW3       30.17R
POUGHKEEPSIE   MOCLDY    66  61  84 CALM      30.15S
ALBANY         MOCLDY    60  53  77 CALM      30.19S
$$

NJZ001-105-106-008-010-013-015-019>022-104-110700-
NEW JERSEY

CITY           SKY/WX    TMP DP  RH WIND       PRES   REMARKS
NEWARK/LIBERTY CLOUDY    73  62  68 CALM      30.13S
TETERBORO      CLOUDY    74  65  73 NW3       30.12F
CALDWELL       CLOUDY    68  67  96 CALM      30.15F FOG
MORRISTOWN     CLOUDY    68  64  88 CALM      30.14S FOG
SOMERVILLE     CLOUDY    68  64  87 NW3       30.12F
LINDEN         FAIR      74  62  66 CALM      30.14F
SUSSEX         CLOUDY    68  65  90 CALM      30.16S
ANDOVER          N/A     65  64  97 SW3       30.17R
TRENTON        CLOUDY    69  63  81 N7        30.12F
MILLVILLE      CLOUDY    69  67  93 CALM      30.12S
ATLANTIC CITY  MOCLDY    66  65  96 CALM      30.12S
WRIGHTSTOWN    CLOUDY    66  64  90 N5        30.10F
TOMS RIVER     MOCLDY    66  64  94 CALM      30.13R
BELMAR         CLOUDY    70  64  83 NW5       30.13S
$$

PAZ047>061-062-071-110700-
EASTERN PENNSYLVANIA

CITY           SKY/WX    TMP DP  RH WIND       PRES   REMARKS
PHILADELPHIA   LGT RAIN  72  65  78 E5        30.12F
ALLENTOWN      CLOUDY    68  65  90 CALM      30.15F
SCRANTON       PTCLDY    62  57  83 E5        30.18S
$$

CTZ002-004>006-009-010-012-RIZ004-006-007-MAZ004-011-015-110700-
SOUTHERN NEW ENGLAND
 IN CT

CITY           SKY/WX    TMP DP  RH WIND       PRES   REMARKS
BRADLEY INTL   MOCLDY    65  55  70 NW5       30.15S
HARTFORD       CLOUDY    70  54  56 N3        30.15S
DANBURY        CLOUDY    68  59  73 CALM      30.17F
WTRBRY/OXFORD  CLOUDY    64  55  72 NW3       30.19S
BRIDGEPORT     CLOUDY    72  65  78 N5        30.14F
MERIDEN        CLOUDY    68  62  81 CALM      30.15S
NEW HAVEN      CLOUDY    69  63  81 N3        30.14F
CHESTER        FAIR      64  63  94 NW3       30.16S
GROTON         CLOUDY    66  64  93 N3        30.13F
WILLIMANTIC    MOCLDY    65  61  87 N5        30.15F

 IN RI

CITY           SKY/WX    TMP DP  RH WIND       PRES   REMARKS
PROVIDENCE     CLOUDY    68  62  81 NW3       30.14F
BLOCK ISLAND   CLOUDY    66  61  82 CALM      30.14F
WESTERLY       CLOUDY    67  62  84 N3        30.14F

 IN MA

CITY           SKY/WX    TMP DP  RH WIND       PRES   REMARKS
BOSTON         CLOUDY    68  60  75 SW6       30.14F
WORCESTER      MOCLDY    68  48  48 N5        30.18S
WESTFIELD      MOCLDY    61  56  83 CALM      30.17S
PROVINCETOWN   CLOUDY    66  63  88 SW3       30.15S
NANTUCKET      CLOUDY    67  66  97 N5        30.13F FOG
$$

ANZ330-335-338-340-345-350-353-355-110700-
COASTAL MARINE OBSERVATIONS


STATION/POSITION TIME  SKY/WX   TEMP    WIND        PRES    VSBY  WAVE
                                AIR SEA DIR/SP/G                  HT/PER
                 (UTC)          (F)     (DEG/KT/KT) (MB)    (MI)  (FT/S)
NY HARB ENTRANCE NOT AVBL
4S FIRE IS       0500               69                N/A           3/ 7
23SW MTP         0600            67 66              1019.5          3/ 7
HUDSON CANYON    0600            70 70  100/  8/ 10 1019.1          3/ 6
EXECUTION ROCKS  0600            70 67   30/  4/  6   N/A
WESTERN LI SOUND 0600            71      10/  4/  6   N/A           0
CENTRAL LI SOUND 0600            71 71  330/  4/  6   N/A           0
EASTERN LI SOUND 0500            65 63  350/  4/  6   N/A
ROBBINS REEF     0600            71     180/  6/  6   N/A
$$


>>>>>>>>>>>>>>>>>>>>>>>>>>>> KEY <<<<<<<<<<<<<<<<<<<<<<<<<<<
>                                                          <
>     SKY/WX - SKY CONDITION/PRESENT WEATHER               <
>     TMP    - TEMPERATURE IN FAHRENHEIT                   <
>     DP     - DEWPOINT IN FAHRENHEIT                      <
>     RH     - RELATIVE HUMIDITY IN PERCENT                <
>     WIND   - DIRECTION AND SPEED IN MPH                  <
>     PRES   - MEAN SEA LEVEL PRESSURE IN INCHES OF HG     <
>     WCI    - WIND CHILL INDEX                            <
>     VSB    - VISIBILITY IN MILES                         <
>     HX     - HEAT INDEX                                  <
>     TC     - TEMPERATURE IN CELSIUS                      <
>     VRB    - VARIABLE WIND DIRECTION                     <
>                                                          <
>>>>>>>>>>>>>>>>>>>>>>>>>>>> KEY <<<<<<<<<<<<<<<<<<<<<<<<<<<





USA.gov is the U.S. government's official web portal to all federal, state and local government web resources and services.